PST,Max TemperatureF,Mean TemperatureF,Min TemperatureF,Max Dew PointF,MeanDew PointF,Min DewpointF,Max Humidity, Mean Humidity, Min Humidity, Max Sea Level PressureIn, Mean Sea Level PressureIn, Min Sea Level PressureIn, Max VisibilityMiles, Mean VisibilityMiles, Min VisibilityMiles, Max Wind SpeedMPH, Mean Wind SpeedMPH, Max Gust SpeedMPH,PrecipitationIn, CloudCover, Events, WindDirDegrees
2011-11-1,37,32,26,29,26,22,100,91,62,30.56,30.50,30.43,10,4,0,7,4,,0.00,5,Fog,235
2011-11-2,36,32,28,30,23,18,96,70,48,,,,10,8,0,10,6,31,0.08,3,Fog-Snow,80
2011-11-3,32,30,28,30,29,27,100,98,92,29.77,29.76,29.76,10,4,0,7,3,,0.20,7,Fog-Snow,244
2011-11-4,30,28,26,28,26,25,100,92,85,29.90,29.81,29.76,10,2,0,8,5,17,0.00,8,Fog,260
2011-11-5,34,29,23,26,23,20,100,87,67,29.86,29.78,29.70,10,8,0,8,3,,0.00,3,Fog,288
2011-11-6,37,28,21,28,25,19,100,85,66,30.15,29.99,29.85,10,10,9,6,3,,0.00,3,,79
2011-11-7,33,30,28,32,29,28,100,95,85,30.23,30.13,30.08,10,3,0,12,5,22,0.25,8,Fog-Snow,281
2011-11-8,39,34,32,35,31,30,100,94,82,30.27,30.24,30.20,10,5,0,12,6,23,0.00,7,Fog-Snow,282
2011-11-9,36,33,30,31,29,27,89,83,78,30.37,30.31,30.25,10,10,9,8,7,17,0.00,0,,77
2011-11-10,48,39,30,28,25,19,92,60,38,30.24,30.12,29.93,10,10,10,7,4,,0.00,0,,248
2011-11-11,42,34,26,32,25,13,100,81,32,29.89,29.53,29.38,10,4,0,17,7,36,1.00,7,Fog-Snow,269
2011-11-12,35,30,26,36,28,24,100,97,89,29.84,29.65,29.52,10,2,0,18,9,43,1.23,8,Fog-Rain-Snow,270
2011-11-13,33,32,30,32,30,28,100,98,93,29.53,29.53,29.53,7,1,0,18,12,41,2.29,8,Fog-Rain-Snow,270
2011-11-14,32,28,24,31,27,23,100,97,92,,,,10,2,0,17,13,41,1.76,8,Fog-Snow,280
2011-11-15,27,24,21,27,24,19,100,95,81,30.30,30.22,30.15,10,5,0,12,7,24,0.06,6,Fog-Snow,285
2011-11-16,30,22,19,30,21,18,100,96,86,30.25,29.89,29.55,10,3,0,12,7,25,3.00,7,Fog-Rain-Snow,88
2011-11-17,32,28,24,32,26,21,100,98,86,29.84,29.63,29.48,8,1,0,20,10,44,1.21,8,Fog-Snow,267
2011-11-18,24,22,21,25,22,19,100,95,86,29.70,29.53,29.45,10,3,0,10,3,,0.06,8,Fog-Snow,276
2011-11-19,21,19,17,20,19,16,100,94,86,29.92,29.71,29.60,10,4,0,8,3,,0.12,8,Fog-Snow,50
2011-11-20,19,18,17,18,17,15,96,93,88,29.96,29.85,29.74,10,5,1,8,5,17,0.00,8,,80
2011-11-21,28,24,19,27,20,17,100,93,86,29.86,29.72,29.59,5,1,0,9,6,23,0.48,8,Fog-Snow,93
2011-11-22,33,30,28,34,31,27,100,97,93,29.71,29.60,29.49,3,1,0,7,3,,1.88,8,Fog-Rain-Snow,102
2011-11-23,36,32,28,36,32,27,100,99,93,29.76,29.58,29.43,7,1,0,10,6,22,0.40,8,Fog-Rain-Snow,264
2011-11-24,28,26,24,29,26,23,100,98,88,29.82,29.69,29.55,10,3,0,16,5,36,0.97,7,Fog-Snow,270
2011-11-25,28,26,24,25,24,21,100,95,85,30.47,30.12,29.74,10,5,1,17,12,41,0.14,7,Rain-Snow,270
2011-11-26,30,28,26,28,25,21,93,88,80,,,,10,8,3,8,7,18,0.03,6,Rain-Snow,97
2011-11-27,41,34,28,39,32,27,100,96,85,30.30,30.16,30.06,10,3,0,17,8,31,0.73,8,Fog-Rain-Snow,268
2011-11-28,30,28,26,30,28,26,100,98,92,30.45,30.35,30.25,10,3,0,8,5,,0.02,6,Fog-Snow,247
2011-11-29,32,29,26,30,25,9,100,86,40,30.38,30.19,30.06,10,5,0,12,5,22,0.14,5,Fog-Snow,253
2011-11-30,30,28,26,30,28,24,100,95,85,30.78,30.46,30.13,10,2,0,9,6,,0.18,3,Fog-Snow,246